Hourly Data Report for October 31, 2015

All times are specified in Local Standard Time (LST). Add 1 hour to adjust for Daylight Saving Time where and when it is observed.

EUREKA CLIMATE
NUNAVUT

79°59'21.000" N
85°56'02.000" W
10.00 m
2401199
71613
NEK

Download Data

Hourly Data (October 2015)
Hourly Data Report for October 31, 2015
Temp Definition
°C
Dew Point Temp Definition
°C
Rel Hum Definition
%
Wind Dir Definition
10's deg

Wind Spd Definition
km/h
Visibility Definition
km
Stn Press Definition
kPa
Hmdx Definition


Wind Chill Definition


Weather Definition


TIME
00:00 -20.2 -22.1 85 12 12   100.04   -28 LegendNANA
01:00 -20.6 -22.4 86 11 11   100.02   -28 LegendNANA
02:00 -20.9 -22.7 86 10 8   100.01   -27 LegendNANA
03:00 -20.7 -22.5 86 12 3   99.99   -23 LegendNANA
04:00 -21.8 -23.8 84 2 9   99.99   -29 LegendNANA
05:00 -21.3 -23.3 84 27 2   99.99   -23 LegendNANA
06:00 -20.8 -22.7 84 36 2   99.96   -23 LegendNANA
07:00 -20.1 -22.0 85 30 5   99.95   -24 LegendNANA
08:00 -24.1 -26.2 83 11 14   99.95   -34 LegendNANA
09:00 -23.4 -25.6 83 11 11   99.93   -32 LegendNANA
10:00 -23.2 -25.2 84 11 10   99.90   -31 LegendNANA
11:00 -23.3 -25.4 83 12 5   99.91   -28 LegendNANA
12:00 -22.2 -24.2 84 13 7   99.92   -28 LegendNANA
13:00 -22.3 -24.2 84 12 4   99.93   -26 LegendNANA
14:00 -19.0 -20.7 86 27 11   99.96   -26 LegendNANA
15:00 -18.7 -20.5 86 26 23   99.99   -30 LegendNANA
16:00 -18.8 -20.6 86 28 18   100.00   -28 LegendNANA
17:00 -18.6 -20.4 86 22 11   100.04   -26 LegendNANA
18:00 -18.6 -20.5 85 26 9   100.07   -25 LegendNANA
19:00 -18.9 -20.7 85 27 5   100.07   -23 LegendNANA
20:00 -20.2 -22.1 84 9 14   100.11   -29 LegendNANA
21:00 -19.8 -21.7 85 15 8   100.14   -26 LegendNANA
22:00 -19.9 -21.9 85 17 13   100.15   -28 LegendNANA
23:00 -19.9 -21.8 85 18 10   100.17   -27 LegendNANA

Notes on Data Quality.

Legend

  • E = Estimated
  • M = Missing
  • NA = Not Available
  • ‡ = Partner data that is not subject to review by the National Climate Archives
Date modified: